This demonstration page uses our WeatherBlox Daily Observations layout. Learn more.

41.55636, -103.73856

Hourly Observations for May 19, 2016

Temp ( °F °C ) Dew Point ( °F °C ) Humidity (%) Winds ( mph kmh ) Pressure ( in mb ) Visibility ( mi km ) Precip ( " mm )
12:53 am 00:53 Clear 52 11.1 39 3.9 61 61 SSE 14 22 29.89 1012 10 16.0934 0 0
1:53 am 01:53 Clear 50 10 39 3.9 66 66 undefined N/A 29.88 1012 10 16.0934 0 0
2:53 am 02:53 Clear 49 9.4 39 3.9 69 69 SE 7 11 29.86 1011 10 16.0934 0 0
3:53 am 03:53 Clear 44 6.7 38 3.3 79 79 ESE 8 13 29.86 1011 10 16.0934 0 0
4:53 am 04:53 Clear 43 6.1 38 3.3 82 82 ESE 9 15 29.84 1011 10 16.0934 0 0
5:53 am 05:53 Sunny 43 6.1 38 3.3 82 82 ESE 13 20 29.84 1010 10 16.0934 0 0
6:53 am 06:53 Sunny 47 8.3 40 4.4 77 77 ESE 12 19 29.83 1010 10 16.0934 0 0
7:53 am 07:53 Sunny 51 10.6 42 5.6 71 71 SE 12 19 29.82 1010 10 16.0934 0 0
8:53 am 08:53 Sunny 56 13.3 44 6.7 65 65 SE 12 19 29.8 1009 10 16.0934 0 0
9:53 am 09:53 Sunny 61 16.1 46 7.8 58 58 ESE 10 17 29.78 1008 10 16.0934 0 0
10:53 am 10:53 Sunny 68 20 47 8.3 47 47 SSE 14 22 29.75 1008 10 16.0934 0 0
11:53 am 11:53 Sunny 72 22.2 45 7.2 38 38 SE 13 20 29.72 1006 10 16.0934 0 0
12:53 pm 12:53 Sunny 76 24.4 46 7.8 35 35 S 13 20 29.67 1005 10 16.0934 0 0
1:53 pm 13:53 Mostly Sunny 76 24.4 46 7.8 35 35 SE 14 22 29.66 1004 10 16.0934 0 0
2:53 pm 14:53 Mostly Sunny 76 24.4 46 7.8 35 35 S 10 17 29.64 1004 10 16.0934 0 0
3:53 pm 15:53 Sunny 75 23.9 46 7.8 36 36 SSE 15 24 29.66 1004 10 16.0934 0 0
4:53 pm 16:53 Sunny 74 23.3 46 7.8 37 37 S 16 26 29.65 1004 10 16.0934 0 0
5:53 pm 17:53 Sunny 74 23.3 47 8.3 38 38 SSE 15 24 29.63 1004 10 16.0934 0 0
6:53 pm 18:53 Sunny 69 20.6 46 7.8 44 44 SSE 12 19 29.64 1004 10 16.0934 0 0
7:53 pm 19:53 Sunny 66 18.9 49 9.4 54 54 SE 14 22 29.65 1004 10 16.0934 0 0
8:53 pm 20:53 Clear 64 17.8 48 8.9 56 56 SE 15 24 29.66 1004 10 16.0934 0 0
9:53 pm 21:53 Clear 60 15.6 48 8.9 65 65 undefined N/A 29.68 1005 10 16.0934 0 0
10:53 pm 22:53 Clear 58 14.4 48 8.9 70 70 ESE 14 22 29.69 1005 10 16.0934 0 0
11:53 pm 23:53 Clear 55 12.8 47 8.3 74 74 ESE 15 24 29.69 1005 10 16.0934 0 0

Powered by AerisWeather